Time,TemperatureF,DewpointF,PressureIn,WindDirection,WindDirectionDegrees,WindSpeedMPH,WindSpeedGustMPH,Humidity,HourlyPrecipIn,Conditions,Clouds,dailyrainin,SoftwareType,DateUTC
2013-02-20 00:07:00,34.7,-20.5,30.00,ENE,67,0.0,-999.0,8,-99.99,,,0.00,Acu-Link.com,2013-02-20 06:07:00,
2013-02-20 00:22:00,34.2,-56.7,29.99,WNW,292,0.0,-999.0,1,-99.99,,,0.00,Acu-Link.com,2013-02-20 06:22:00,
2013-02-20 00:38:00,33.4,-57.2,30.00,SSW,202,0.0,-999.0,1,-99.99,,,0.00,Acu-Link.com,2013-02-20 06:38:00,
2013-02-20 00:54:00,32.2,-57.9,30.01,NE,45,0.0,-999.0,1,-99.99,,,0.00,Acu-Link.com,2013-02-20 06:54:00,
2013-02-20 01:10:00,32.2,-57.9,30.00,WNW,292,0.0,-999.0,1,-99.99,,,0.00,Acu-Link.com,2013-02-20 07:10:00,
2013-02-20 01:25:00,33.8,-56.9,30.01,SSE,157,0.0,-999.0,1,-99.99,,,0.00,Acu-Link.com,2013-02-20 07:25:00,
2013-02-20 01:41:00,34.0,-56.8,30.00,SSW,202,0.0,-999.0,1,-99.99,,,0.00,Acu-Link.com,2013-02-20 07:41:00,
2013-02-20 01:56:00,33.3,-57.3,30.02,WNW,292,0.0,-999.0,1,-99.99,,,0.00,Acu-Link.com,2013-02-20 07:56:00,
2013-02-20 02:11:00,32.2,-57.9,30.01,NNW,337,0.0,-999.0,1,-99.99,,,0.00,Acu-Link.com,2013-02-20 08:11:00,
2013-02-20 02:27:00,32.0,-58.1,30.01,NW,315,0.0,-999.0,1,-99.99,,,0.00,Acu-Link.com,2013-02-20 08:27:00,
2013-02-20 02:42:00,31.5,-58.4,30.00,West,270,0.0,-999.0,1,-99.99,,,0.00,Acu-Link.com,2013-02-20 08:42:00,
2013-02-20 02:57:00,31.5,-58.4,30.00,NE,45,0.0,-999.0,1,-99.99,,,0.00,Acu-Link.com,2013-02-20 08:57:00,
2013-02-20 03:17:00,31.8,-58.2,29.99,NNE,22,0.0,-999.0,1,-99.99,,,0.00,Acu-Link.com,2013-02-20 09:17:00,
2013-02-20 03:33:00,31.8,-58.2,29.98,SE,135,0.0,-999.0,1,-99.99,,,0.00,Acu-Link.com,2013-02-20 09:33:00,
2013-02-20 03:48:00,32.9,-57.5,29.96,ENE,67,1.7,-999.0,1,-99.99,,,0.00,Acu-Link.com,2013-02-20 09:48:00,
2013-02-20 04:03:00,34.7,-56.4,29.95,ENE,67,1.1,-999.0,1,-99.99,,,0.00,Acu-Link.com,2013-02-20 10:03:00,
2013-02-20 04:18:00,35.6,-55.8,29.95,NE,45,1.1,-999.0,1,-99.99,,,0.00,Acu-Link.com,2013-02-20 10:18:00,
2013-02-20 04:33:00,35.4,-56.0,29.96,East,90,0.0,-999.0,1,-99.99,,,0.00,Acu-Link.com,2013-02-20 10:33:00,
2013-02-20 04:48:00,35.2,-56.1,29.95,East,90,0.0,-999.0,1,-99.99,,,0.00,Acu-Link.com,2013-02-20 10:48:00,
2013-02-20 05:03:00,35.8,28.7,29.95,NE,45,2.2,-999.0,75,-99.99,,,0.00,Acu-Link.com,2013-02-20 11:03:00,
2013-02-20 05:18:00,37.4,13.5,29.95,South,180,0.0,-999.0,37,-99.99,,,0.00,Acu-Link.com,2013-02-20 11:18:00,
2013-02-20 05:33:00,38.3,-54.2,29.95,NW,315,3.7,-999.0,1,-99.99,,,0.00,Acu-Link.com,2013-02-20 11:33:00,
2013-02-20 05:49:00,39.2,-53.6,29.97,North,0,2.7,-999.0,1,-99.99,,,0.00,Acu-Link.com,2013-02-20 11:49:00,
2013-02-20 06:04:00,39.7,-53.3,29.99,NNE,22,1.7,-999.0,1,-99.99,,,0.00,Acu-Link.com,2013-02-20 12:04:00,
2013-02-20 06:19:00,39.6,-53.3,29.99,NW,315,1.1,-999.0,1,-99.99,,,0.00,Acu-Link.com,2013-02-20 12:19:00,
2013-02-20 06:34:00,39.4,-53.5,29.97,NNE,22,1.7,-999.0,1,-99.99,,,0.00,Acu-Link.com,2013-02-20 12:34:00,
2013-02-20 06:49:00,39.2,-53.6,29.98,ENE,67,0.0,-999.0,1,-99.99,,,0.00,Acu-Link.com,2013-02-20 12:49:00,
2013-02-20 07:05:00,39.2,-53.6,29.98,ENE,67,0.0,-999.0,1,-99.99,,,0.00,Acu-Link.com,2013-02-20 13:05:00,
2013-02-20 07:20:00,39.9,-53.2,30.00,WNW,292,1.1,-999.0,1,-99.99,,,0.00,Acu-Link.com,2013-02-20 13:20:00,
2013-02-20 07:35:00,40.1,-53.0,30.00,North,0,1.7,-999.0,1,-99.99,,,0.00,Acu-Link.com,2013-02-20 13:35:00,
2013-02-20 07:53:00,40.5,-52.8,30.00,NNE,22,4.7,-999.0,1,-99.99,,,0.00,Acu-Link.com,2013-02-20 13:53:00,
2013-02-20 08:08:00,42.6,-51.5,30.02,NW,315,7.3,-999.0,1,-99.99,,,0.00,Acu-Link.com,2013-02-20 14:08:00,
2013-02-20 08:23:00,43.5,-50.9,30.03,ESE,112,4.2,-999.0,1,-99.99,,,0.00,Acu-Link.com,2013-02-20 14:23:00,
2013-02-20 08:38:00,44.4,-50.4,30.02,ESE,112,4.2,-999.0,1,-99.99,,,0.00,Acu-Link.com,2013-02-20 14:38:00,
2013-02-20 08:54:00,44.1,-50.6,30.03,NE,45,2.7,-999.0,1,-99.99,,,0.00,Acu-Link.com,2013-02-20 14:54:00,
2013-02-20 09:09:00,45.0,-50.0,30.02,NW,315,3.7,-999.0,1,-99.99,,,0.00,Acu-Link.com,2013-02-20 15:09:00,
2013-02-20 09:24:00,45.1,-50.0,30.02,ENE,67,3.2,-999.0,1,-99.99,,,0.00,Acu-Link.com,2013-02-20 15:24:00,
2013-02-20 09:40:00,45.5,-49.7,30.02,NE,45,3.7,-999.0,1,-99.99,,,0.00,Acu-Link.com,2013-02-20 15:40:00,
2013-02-20 09:55:00,45.5,-49.7,30.02,ESE,112,2.2,-999.0,1,-99.99,,,0.00,Acu-Link.com,2013-02-20 15:55:00,
2013-02-20 10:10:00,45.3,-49.8,30.03,NNE,22,3.7,-999.0,1,-99.99,,,0.00,Acu-Link.com,2013-02-20 16:10:00,
2013-02-20 10:25:00,45.5,-49.7,30.03,ENE,67,2.2,-999.0,1,-99.99,,,0.00,Acu-Link.com,2013-02-20 16:25:00,
2013-02-20 10:41:00,45.9,-49.5,30.02,SE,135,3.2,-999.0,1,-99.99,,,0.00,Acu-Link.com,2013-02-20 16:41:00,
2013-02-20 10:58:00,47.3,-48.6,30.03,NE,45,1.1,-999.0,1,-99.99,,,0.00,Acu-Link.com,2013-02-20 16:58:00,
2013-02-20 11:13:00,46.4,-49.2,30.01,SE,135,2.2,-999.0,1,-99.99,,,0.00,Acu-Link.com,2013-02-20 17:13:00,
2013-02-20 11:28:00,46.0,-49.4,29.99,ESE,112,2.7,-999.0,1,-99.99,,,0.00,Acu-Link.com,2013-02-20 17:28:00,
2013-02-20 11:43:00,47.3,-48.6,29.99,East,90,4.7,-999.0,1,-99.99,,,0.00,Acu-Link.com,2013-02-20 17:43:00,
2013-02-20 11:59:00,46.8,-48.9,29.98,ESE,112,4.2,-999.0,1,-99.99,,,0.00,Acu-Link.com,2013-02-20 17:59:00,
2013-02-20 12:14:00,48.9,-47.6,29.94,ENE,67,2.2,-999.0,1,-99.99,,,0.00,Acu-Link.com,2013-02-20 18:14:00,
2013-02-20 12:29:00,52.2,-45.6,29.93,ENE,67,5.8,-999.0,1,-99.99,,,0.00,Acu-Link.com,2013-02-20 18:29:00,
2013-02-20 12:44:00,54.3,-44.3,29.93,South,180,2.2,-999.0,1,-99.99,,,0.00,Acu-Link.com,2013-02-20 18:44:00,
2013-02-20 12:59:00,55.4,-43.7,29.93,East,90,3.2,-999.0,1,-99.99,,,0.00,Acu-Link.com,2013-02-20 18:59:00,
2013-02-20 13:16:00,54.1,-44.4,29.93,ENE,67,2.2,-999.0,1,-99.99,,,0.00,Acu-Link.com,2013-02-20 19:16:00,
2013-02-20 13:31:00,54.9,-44.0,29.91,ENE,67,4.2,-999.0,1,-99.99,,,0.00,Acu-Link.com,2013-02-20 19:31:00,
2013-02-20 13:47:00,57.0,-42.7,29.90,SSE,157,2.2,-999.0,1,-99.99,,,0.00,Acu-Link.com,2013-02-20 19:47:00,
2013-02-20 14:02:00,56.8,-42.8,29.91,SW,225,2.7,-999.0,1,-99.99,,,0.00,Acu-Link.com,2013-02-20 20:02:00,
2013-02-20 14:17:00,57.4,-42.4,29.90,NE,45,3.2,-999.0,1,-99.99,,,0.00,Acu-Link.com,2013-02-20 20:17:00,
2013-02-20 14:32:00,58.5,-41.8,29.90,NE,45,3.2,-999.0,1,-99.99,,,0.00,Acu-Link.com,2013-02-20 20:32:00,
2013-02-20 14:48:00,58.5,-41.8,29.90,ENE,67,2.7,-999.0,1,-99.99,,,0.00,Acu-Link.com,2013-02-20 20:48:00,
2013-02-20 15:03:00,59.9,-40.9,29.90,ENE,67,2.7,-999.0,1,-99.99,,,0.00,Acu-Link.com,2013-02-20 21:03:00,
2013-02-20 15:19:00,59.4,-41.2,29.91,North,0,2.2,-999.0,1,-99.99,,,0.00,Acu-Link.com,2013-02-20 21:19:00,
2013-02-20 15:34:00,57.9,-42.1,29.90,NNE,22,3.7,-999.0,1,-99.99,,,0.00,Acu-Link.com,2013-02-20 21:34:00,
2013-02-20 15:49:00,59.9,-40.9,29.90,SSE,157,3.2,-999.0,1,-99.99,,,0.00,Acu-Link.com,2013-02-20 21:49:00,
2013-02-20 16:05:00,59.4,-41.2,29.89,SE,135,2.2,-999.0,1,-99.99,,,0.00,Acu-Link.com,2013-02-20 22:05:00,
2013-02-20 16:20:00,58.1,-42.0,29.90,SE,135,4.2,-999.0,1,-99.99,,,0.00,Acu-Link.com,2013-02-20 22:20:00,
2013-02-20 16:35:00,57.6,-42.3,29.87,ENE,67,1.1,-999.0,1,-99.99,,,0.00,Acu-Link.com,2013-02-20 22:35:00,
2013-02-20 16:50:00,57.0,-42.7,29.87,SSE,157,2.2,-999.0,1,-99.99,,,0.00,Acu-Link.com,2013-02-20 22:50:00,
2013-02-20 17:07:00,57.4,-42.4,29.87,East,90,1.1,-999.0,1,-99.99,,,0.00,Acu-Link.com,2013-02-20 23:07:00,
2013-02-20 17:22:00,58.3,-41.9,29.87,NW,315,0.0,-999.0,1,-99.99,,,0.00,Acu-Link.com,2013-02-20 23:22:00,
2013-02-20 17:37:00,56.3,-43.1,29.87,ESE,112,0.0,-999.0,1,-99.99,,,0.00,Acu-Link.com,2013-02-20 23:37:00,
2013-02-20 17:52:00,52.0,-45.7,29.86,East,90,0.0,-999.0,1,-99.99,,,0.00,Acu-Link.com,2013-02-20 23:52:00,
2013-02-20 18:07:00,49.5,-47.3,29.84,ESE,112,1.1,-999.0,1,-99.99,,,0.00,Acu-Link.com,2013-02-21 00:07:00,
2013-02-20 18:22:00,48.0,-48.2,29.85,East,90,1.7,-999.0,1,-99.99,,,0.00,Acu-Link.com,2013-02-21 00:22:00,
2013-02-20 18:37:00,46.4,-49.2,29.87,NE,45,0.0,-999.0,1,-99.99,,,0.00,Acu-Link.com,2013-02-21 00:37:00,
2013-02-20 18:52:00,46.2,-49.3,29.86,ESE,112,0.0,-999.0,1,-99.99,,,0.00,Acu-Link.com,2013-02-21 00:52:00,
2013-02-20 19:08:00,46.6,-49.0,29.86,NE,45,0.0,-999.0,1,-99.99,,,0.00,Acu-Link.com,2013-02-21 01:08:00,
2013-02-20 19:23:00,46.8,-48.9,29.86,NE,45,1.7,-999.0,1,-99.99,,,0.00,Acu-Link.com,2013-02-21 01:23:00,
2013-02-20 19:38:00,46.9,-48.8,29.86,ESE,112,2.2,-999.0,1,-99.99,,,0.00,Acu-Link.com,2013-02-21 01:38:00,
2013-02-20 19:53:00,46.8,-48.9,29.87,East,90,2.7,-999.0,1,-99.99,,,0.00,Acu-Link.com,2013-02-21 01:53:00,
2013-02-20 20:09:00,46.6,-49.0,29.87,ENE,67,2.2,-999.0,1,-99.99,,,0.00,Acu-Link.com,2013-02-21 02:09:00,
2013-02-20 20:24:00,46.4,-49.2,29.86,ENE,67,1.1,-999.0,1,-99.99,,,0.00,Acu-Link.com,2013-02-21 02:24:00,
2013-02-20 20:39:00,46.2,-49.3,29.87,SE,135,1.7,-999.0,1,-99.99,,,0.00,Acu-Link.com,2013-02-21 02:39:00,
2013-02-20 20:54:00,46.0,-49.4,29.87,WSW,247,1.1,-999.0,1,-99.99,,,0.00,Acu-Link.com,2013-02-21 02:54:00,
2013-02-20 21:09:00,45.0,-50.0,29.86,ENE,67,0.0,-999.0,1,-99.99,,,0.00,Acu-Link.com,2013-02-21 03:09:00,
2013-02-20 21:24:00,43.9,-50.7,29.86,ENE,67,0.0,-999.0,1,-99.99,,,0.00,Acu-Link.com,2013-02-21 03:24:00,
2013-02-20 21:40:00,42.8,-51.4,29.87,ENE,67,0.0,-999.0,1,-99.99,,,0.00,Acu-Link.com,2013-02-21 03:40:00,
2013-02-20 21:55:00,42.8,-51.4,29.87,ENE,67,0.0,-999.0,1,-99.99,,,0.00,Acu-Link.com,2013-02-21 03:55:00,
2013-02-20 22:10:00,43.5,-50.9,29.85,SSE,157,0.0,-999.0,1,-99.99,,,0.00,Acu-Link.com,2013-02-21 04:10:00,
2013-02-20 22:25:00,43.7,-50.8,29.85,ESE,112,0.0,-999.0,1,-99.99,,,0.00,Acu-Link.com,2013-02-21 04:25:00,
2013-02-20 22:40:00,43.9,-50.7,29.85,SE,135,1.7,-999.0,1,-99.99,,,0.00,Acu-Link.com,2013-02-21 04:40:00,
2013-02-20 22:55:00,43.9,-50.7,29.85,ESE,112,3.7,-999.0,1,-99.99,,,0.00,Acu-Link.com,2013-02-21 04:55:00,
2013-02-20 23:10:00,43.7,-50.8,29.84,NE,45,0.0,-999.0,1,-99.99,,,0.00,Acu-Link.com,2013-02-21 05:10:00,
2013-02-20 23:25:00,43.7,-50.8,29.84,ESE,112,3.7,-999.0,1,-99.99,,,0.00,Acu-Link.com,2013-02-21 05:25:00,
2013-02-20 23:40:00,43.3,-51.1,29.84,SSE,157,2.2,-999.0,1,-99.99,,,0.00,Acu-Link.com,2013-02-21 05:40:00,
2013-02-20 23:56:00,43.3,-51.1,29.84,ENE,67,1.7,-999.0,1,-99.99,,,0.00,Acu-Link.com,2013-02-21 05:56:00,